| time (UTC) | temp F | wind direction | speed MPH | gust MPH | rain 1hr in | rain 24hr in | rain mn in | humidity % | barometer mb |
| 20260505124716 | 45 | 233 | 3.0 | 7.0 | 0.00 | 0.00 | 0.00 | 63 | 1007.7 |
| 20260505123738 | 45 | 244 | 4.0 | 7.0 | 0.00 | 0.00 | 0.00 | 62 | 1007.6 |
| 20260505122656 | 44 | 239 | 2.0 | 4.0 | 0.00 | 0.00 | 0.00 | 67 | 1007.6 |
| 20260505121656 | 43 | 226 | 3.0 | 6.0 | 0.00 | 0.00 | 0.00 | 66 | 1007.2 |
| 20260505120657 | 44 | 248 | 3.0 | 5.0 | 0.00 | 0.00 | 0.00 | 67 | 1006.9 |
| 20260505115656 | 43 | 0.0 | 0.0 | 0.00 | 0.00 | 0.00 | 65 | 1006.2 | |
| 20260505114656 | 43 | 0.0 | 0.0 | 0.00 | 0.00 | 0.00 | 63 | 1006.3 | |
| 20260505113656 | 41 | 0.0 | 0.0 | 0.00 | 0.00 | 0.00 | 67 | 1005.9 | |
| 20260505112656 | 40 | 0.0 | 0.0 | 0.00 | 0.00 | 0.00 | 68 | 1006.1 | |
| 20260505111656 | 40 | 0.0 | 0.0 | 0.00 | 0.00 | 0.00 | 68 | 1006.0 | |
| 20260505110657 | 40 | 284 | 0.0 | 1.0 | 0.00 | 0.00 | 0.00 | 66 | 1006.0 |
| 20260505101657 | 42 | 284 | 0.0 | 2.0 | 0.00 | 0.00 | 0.00 | 62 | 1005.6 |
| 20260505100657 | 43 | 284 | 1.0 | 2.0 | 0.00 | 0.00 | 0.00 | 60 | 1005.4 |
| 20260505095656 | 43 | 285 | 1.0 | 3.0 | 0.00 | 0.00 | 0.00 | 60 | 1005.4 |
| 20260505094716 | 43 | 287 | 2.0 | 4.0 | 0.00 | 0.00 | 0.00 | 61 | 1005.6 |
| 20260505093656 | 43 | 304 | 3.0 | 6.0 | 0.00 | 0.00 | 0.00 | 60 | 1005.8 |
| 20260505092657 | 44 | 283 | 3.0 | 7.0 | 0.00 | 0.00 | 0.00 | 60 | 1005.7 |
| 20260505091657 | 44 | 289 | 4.0 | 8.0 | 0.00 | 0.00 | 0.00 | 59 | 1005.4 |
| 20260505090656 | 44 | 299 | 5.0 | 8.0 | 0.00 | 0.00 | 0.00 | 60 | 1005.2 |
| 20260505085656 | 44 | 290 | 3.0 | 4.0 | 0.00 | 0.00 | 0.00 | 60 | 1005.2 |
| 20260505084657 | 45 | 286 | 3.0 | 6.0 | 0.00 | 0.00 | 0.00 | 58 | 1004.8 |
| 20260505083656 | 45 | 288 | 5.0 | 8.0 | 0.00 | 0.00 | 0.00 | 57 | 1004.5 |
| 20260505082656 | 46 | 291 | 5.0 | 9.0 | 0.00 | 0.00 | 0.00 | 56 | 1004.2 |
| 20260505081657 | 46 | 314 | 5.0 | 9.0 | 0.00 | 0.00 | 0.00 | 55 | 1003.9 |
| 20260505080656 | 46 | 313 | 5.0 | 11.0 | 0.00 | 0.00 | 0.00 | 54 | 1003.8 |
| 20260505075757 | 46 | 307 | 5.0 | 12.0 | 0.00 | 0.00 | 0.00 | 55 | 1003.5 |
| 20260505074717 | 47 | 319 | 6.0 | 13.0 | 0.00 | 0.00 | 0.00 | 55 | 1003.5 |
| 20260505073656 | 47 | 315 | 9.0 | 14.0 | 0.00 | 0.00 | 0.00 | 56 | 1003.6 |
| 20260505072656 | 47 | 311 | 8.0 | 16.0 | 0.00 | 0.00 | 0.00 | 57 | 1003.4 |
| 20260505071656 | 47 | 322 | 8.0 | 13.0 | 0.00 | 0.00 | 0.00 | 59 | 1003.6 |
| 20260505070657 | 48 | 332 | 6.0 | 13.0 | 0.00 | 0.00 | 0.00 | 59 | 1003.2 |
| 20260505065656 | 48 | 324 | 6.0 | 12.0 | 0.00 | 0.00 | 0.00 | 58 | 1003.0 |
| 20260505064656 | 49 | 329 | 7.0 | 11.0 | 0.00 | 0.00 | 0.00 | 57 | 1002.9 |
| 20260505063656 | 50 | 328 | 9.0 | 14.0 | 0.00 | 0.00 | 0.00 | 57 | 1002.9 |
| 20260505062656 | 50 | 321 | 9.0 | 14.0 | 0.00 | 0.00 | 0.00 | 58 | 1003.0 |
| 20260505061655 | 50 | 301 | 8.0 | 11.0 | 0.00 | 0.00 | 0.00 | 57 | 1002.9 |
| 20260505060656 | 51 | 324 | 6.0 | 12.0 | 0.00 | 0.00 | 0.00 | 57 | 1002.6 |
| 20260505055656 | 51 | 315 | 6.0 | 10.0 | 0.00 | 0.00 | 0.00 | 57 | 1002.6 |
| 20260505054657 | 51 | 316 | 5.0 | 12.0 | 0.00 | 0.00 | 0.00 | 57 | 1002.5 |
| 20260505053657 | 52 | 309 | 5.0 | 11.0 | 0.00 | 0.00 | 0.00 | 56 | 1002.5 |
| 20260505052655 | 52 | 305 | 6.0 | 9.0 | 0.00 | 0.00 | 0.00 | 56 | 1002.3 |
| 20260505051656 | 53 | 310 | 6.0 | 13.0 | 0.00 | 0.00 | 0.00 | 55 | 1002.0 |
| 20260505050655 | 53 | 309 | 6.0 | 13.0 | 0.00 | 0.00 | 0.00 | 54 | 1001.7 |
| 20260505041656 | 56 | 295 | 6.0 | 12.0 | 0.00 | 0.00 | 0.00 | 50 | 1000.6 |
| 20260505040656 | 56 | 287 | 6.0 | 10.0 | 0.00 | 0.00 | 0.00 | 49 | 1000.7 |
| 20260505035657 | 57 | 274 | 4.0 | 9.0 | 0.00 | 0.00 | 0.00 | 47 | 1000.8 |
| 20260505034656 | 58 | 281 | 4.0 | 9.0 | 0.00 | 0.00 | 0.00 | 46 | 1000.6 |
| 20260505033656 | 58 | 285 | 7.0 | 10.0 | 0.00 | 0.00 | 0.00 | 44 | 1000.4 |
| 20260505032657 | 59 | 281 | 8.0 | 14.0 | 0.00 | 0.00 | 0.00 | 44 | 1000.2 |
| 20260505031656 | 59 | 286 | 9.0 | 15.0 | 0.00 | 0.00 | 0.00 | 46 | 1000.0 |
| 20260505030656 | 59 | 284 | 4.0 | 9.0 | 0.00 | 0.00 | 0.00 | 52 | 999.8 |
| 20260505025716 | 59 | 271 | 4.0 | 8.0 | 0.00 | 0.00 | 0.00 | 51 | 999.6 |
| 20260505024656 | 59 | 282 | 2.0 | 4.0 | 0.00 | 0.00 | 0.00 | 52 | 998.9 |
| 20260505023656 | 60 | 284 | 4.0 | 9.0 | 0.00 | 0.00 | 0.00 | 50 | 999.1 |
| 20260505022656 | 60 | 277 | 4.0 | 8.0 | 0.00 | 0.00 | 0.00 | 50 | 999.0 |
| 20260505021656 | 61 | 287 | 4.0 | 8.0 | 0.00 | 0.00 | 0.00 | 49 | 998.9 |
| 20260505020656 | 61 | 283 | 3.0 | 6.0 | 0.00 | 0.00 | 0.00 | 49 | 998.7 |
| 20260505015717 | 62 | 274 | 5.0 | 11.0 | 0.00 | 0.00 | 0.00 | 47 | 998.5 |
| 20260505014656 | 63 | 292 | 5.0 | 16.0 | 0.00 | 0.00 | 0.00 | 46 | 998.1 |
| 20260505013656 | 63 | 296 | 8.0 | 14.0 | 0.00 | 0.00 | 0.00 | 47 | 997.7 |
| 20260505012657 | 64 | 297 | 9.0 | 15.0 | 0.00 | 0.00 | 0.00 | 46 | 997.2 |
| 20260505011657 | 64 | 295 | 11.0 | 14.0 | 0.00 | 0.00 | 0.00 | 46 | 997.0 |
| 20260505010656 | 65 | 299 | 7.0 | 13.0 | 0.00 | 0.00 | 0.00 | 46 | 996.7 |
| 20260505005656 | 65 | 301 | 6.0 | 13.0 | 0.00 | 0.00 | 0.00 | 46 | 996.4 |
| 20260505004656 | 66 | 303 | 5.0 | 11.0 | 0.00 | 0.00 | 0.00 | 45 | 996.1 |
| 20260505003656 | 67 | 304 | 8.0 | 16.0 | 0.00 | 0.00 | 0.00 | 44 | 996.0 |
| 20260505002656 | 68 | 299 | 7.0 | 12.0 | 0.00 | 0.00 | 0.00 | 44 | 996.0 |
| 20260505001657 | 70 | 299 | 6.0 | 10.0 | 0.00 | 0.00 | 0.00 | 46 | 996.0 |
| 20260505000657 | 71 | 292 | 7.0 | 12.0 | 0.00 | 0.00 | 0.00 | 45 | 995.8 |
| 20260504235655 | 71 | 298 | 10.0 | 19.0 | 0.00 | 0.00 | 0.00 | 46 | 995.6 |
| 20260504234656 | 72 | 293 | 9.0 | 17.0 | 0.00 | 0.00 | 0.00 | 45 | 995.5 |
| 20260504233657 | 73 | 290 | 9.0 | 14.0 | 0.00 | 0.00 | 0.00 | 45 | 995.3 |
| 20260504232655 | 75 | 299 | 11.0 | 17.0 | 0.00 | 0.00 | 0.00 | 43 | 995.6 |
| 20260504231656 | 75 | 268 | 5.0 | 9.0 | 0.00 | 0.00 | 0.00 | 43 | 995.2 |
| 20260504230717 | 74 | 268 | 5.0 | 10.0 | 0.00 | 0.00 | 0.00 | 45 | 995.1 |
| 20260504225655 | 75 | 254 | 4.0 | 10.0 | 0.00 | 0.00 | 0.00 | 43 | 995.0 |
| 20260504224657 | 75 | 272 | 3.0 | 11.0 | 0.00 | 0.00 | 0.00 | 44 | 995.1 |
| 20260504223736 | 75 | 269 | 4.0 | 8.0 | 0.00 | 0.00 | 0.00 | 43 | 995.1 |
| 20260504222655 | 75 | 253 | 5.0 | 10.0 | 0.00 | 0.00 | 0.00 | 42 | 995.1 |
| 20260504221656 | 75 | 255 | 5.0 | 11.0 | 0.00 | 0.00 | 0.00 | 41 | 995.2 |
| 20260504220655 | 75 | 265 | 7.0 | 14.0 | 0.00 | 0.00 | 0.00 | 42 | 995.3 |
| 20260504215655 | 75 | 248 | 8.0 | 11.0 | 0.00 | 0.00 | 0.00 | 42 | 995.3 |
| 20260504214657 | 75 | 241 | 9.0 | 13.0 | 0.00 | 0.00 | 0.00 | 42 | 995.3 |
| 20260504213655 | 76 | 248 | 10.0 | 18.0 | 0.00 | 0.00 | 0.00 | 40 | 995.3 |
| 20260504212655 | 76 | 243 | 9.0 | 16.0 | 0.00 | 0.00 | 0.00 | 40 | 995.3 |
| 20260504211657 | 75 | 246 | 12.0 | 18.0 | 0.00 | 0.00 | 0.00 | 39 | 995.4 |
| 20260504210655 | 75 | 245 | 11.0 | 18.0 | 0.00 | 0.00 | 0.00 | 42 | 995.5 |
| 20260504205655 | 76 | 252 | 11.0 | 19.0 | 0.00 | 0.00 | 0.00 | 40 | 995.8 |
| 20260504204656 | 76 | 260 | 9.0 | 17.0 | 0.00 | 0.00 | 0.00 | 41 | 995.9 |
| 20260504203655 | 76 | 248 | 11.0 | 16.0 | 0.00 | 0.00 | 0.00 | 41 | 996.0 |
| 20260504202656 | 76 | 240 | 10.0 | 16.0 | 0.00 | 0.00 | 0.00 | 42 | 996.1 |
| 20260504201656 | 75 | 245 | 10.0 | 18.0 | 0.00 | 0.00 | 0.00 | 42 | 996.2 |
| 20260504200655 | 75 | 233 | 9.0 | 17.0 | 0.00 | 0.00 | 0.00 | 42 | 996.3 |
| 20260504195655 | 75 | 238 | 11.0 | 20.0 | 0.00 | 0.00 | 0.00 | 41 | 996.3 |
| 20260504194655 | 75 | 245 | 11.0 | 22.0 | 0.00 | 0.00 | 0.00 | 40 | 996.4 |
| 20260504193655 | 75 | 253 | 10.0 | 19.0 | 0.00 | 0.00 | 0.00 | 41 | 996.5 |
| 20260504192655 | 75 | 242 | 14.0 | 22.0 | 0.00 | 0.00 | 0.00 | 41 | 996.6 |
| 20260504191655 | 75 | 235 | 13.0 | 21.0 | 0.00 | 0.00 | 0.00 | 40 | 996.7 |
| 20260504190715 | 75 | 257 | 11.0 | 19.0 | 0.00 | 0.00 | 0.00 | 39 | 996.7 |
| 20260504185656 | 75 | 231 | 10.0 | 20.0 | 0.00 | 0.00 | 0.00 | 39 | 996.6 |
| 20260504184655 | 75 | 240 | 10.0 | 18.0 | 0.00 | 0.00 | 0.00 | 41 | 996.9 |
| 20260504183657 | 75 | 228 | 10.0 | 18.0 | 0.00 | 0.00 | 0.00 | 40 | 997.0 |
| 20260504182657 | 75 | 236 | 11.0 | 18.0 | 0.00 | 0.00 | 0.00 | 39 | 997.0 |
| 20260504181717 | 74 | 232 | 12.0 | 21.0 | 0.00 | 0.00 | 0.00 | 38 | 997.0 |
| 20260504180657 | 74 | 229 | 9.0 | 17.0 | 0.00 | 0.00 | 0.00 | 40 | 997.0 |
| 20260504175659 | 74 | 223 | 8.0 | 23.0 | 0.00 | 0.00 | 0.00 | 39 | 997.2 |
| 20260504174657 | 74 | 233 | 10.0 | 16.0 | 0.00 | 0.00 | 0.00 | 40 | 997.2 |
| 20260504173719 | 73 | 211 | 9.0 | 17.0 | 0.00 | 0.00 | 0.00 | 39 | 997.1 |
| 20260504172657 | 73 | 230 | 10.0 | 19.0 | 0.00 | 0.00 | 0.00 | 40 | 997.3 |
| 20260504171718 | 73 | 220 | 9.0 | 13.0 | 0.00 | 0.00 | 0.00 | 41 | 997.4 |
| 20260504170657 | 73 | 243 | 16.0 | 22.0 | 0.00 | 0.00 | 0.00 | 40 | 997.6 |
| 20260504150658 | 68 | 209 | 9.0 | 18.0 | 0.00 | 0.00 | 0.00 | 46 | 999.5 |
| 20260504140719 | 64 | 213 | 7.0 | 10.0 | 0.00 | 0.00 | 0.00 | 53 | 1000.0 |